Location: Newark
(52.0742°N, 23.6111°E)
Time: 07:36:45
(UTC+00:00)

X-37B - Visible Passes

Search period start: 20 September 2020 00:00
Search period end: 30 September 2020 00:00
Orbit: 386 x 387 km, 45.0° (Epoch: 18 September)

Date Brightness Start Highest point End Pass type
(mag) Time Alt. Az. Time Alt. Az. Time Alt. Az.
20 Sep 3.4 01:33:17 12° SE 01:33:17 12° SE 01:33:39 10° ESE visible
20 Sep 2.4 03:05:33 14° SW 03:07:07 19° SSW 03:09:28 10° SE visible
21 Sep 2.6 02:09:45 19° SSE 02:09:45 19° SSE 02:11:17 10° SE visible
22 Sep 2.6 02:46:19 15° SSW 02:46:20 15° SSW 02:48:19 10° SSE visible
